TimeEDT,TemperatureF,Dew PointF,Humidity,Sea Level PressureIn,VisibilityMPH,Wind Direction,Wind SpeedMPH,Gust SpeedMPH,PrecipitationIn,Events,Conditions,WindDirDegrees,DateUTC
12:53 AM,42.1,39.0,89,30.10,10.0,Calm,Calm,-,N/A,,Clear,0,2012-10-22 04:53:00
1:53 AM,41.0,39.0,93,30.09,10.0,Calm,Calm,-,N/A,,Clear,0,2012-10-22 05:53:00
2:53 AM,41.0,39.0,93,30.09,10.0,Calm,Calm,-,N/A,,Clear,0,2012-10-22 06:53:00
3:53 AM,39.0,37.9,96,30.09,5.0,Calm,Calm,-,N/A,,Clear,0,2012-10-22 07:53:00
4:53 AM,39.9,37.9,93,30.09,7.0,Calm,Calm,-,N/A,,Clear,0,2012-10-22 08:53:00
5:53 AM,39.9,39.0,97,30.09,7.0,Calm,Calm,-,N/A,,Clear,0,2012-10-22 09:53:00
6:53 AM,39.0,37.9,96,30.09,8.0,Calm,Calm,-,N/A,,Clear,0,2012-10-22 10:53:00
7:53 AM,39.9,37.9,93,30.09,6.0,Calm,Calm,-,N/A,,Clear,0,2012-10-22 11:53:00
9:53 AM,52.0,46.0,80,30.09,9.0,South,3.5,-,N/A,,Partly Cloudy,170,2012-10-22 13:53:00
10:53 AM,55.9,48.0,75,30.09,10.0,ESE,3.5,-,N/A,,Partly Cloudy,120,2012-10-22 14:53:00
11:53 AM,60.1,48.0,64,30.08,10.0,SE,5.8,-,N/A,,Partly Cloudy,130,2012-10-22 15:53:00
12:53 PM,64.0,48.9,58,30.06,10.0,SE,4.6,-,N/A,,Scattered Clouds,130,2012-10-22 16:53:00
1:53 PM,66.9,50.0,54,30.04,10.0,SE,9.2,-,N/A,,Mostly Cloudy,140,2012-10-22 17:53:00
2:53 PM,69.1,52.0,54,30.03,10.0,SSE,9.2,-,N/A,,Overcast,160,2012-10-22 18:53:00
3:53 PM,68.0,53.1,59,30.02,10.0,South,6.9,-,N/A,,Overcast,170,2012-10-22 19:53:00
4:53 PM,68.0,53.1,59,30.00,10.0,SE,6.9,-,N/A,,Mostly Cloudy,140,2012-10-22 20:53:00
5:53 PM,66.0,53.1,63,30.00,10.0,SE,6.9,-,N/A,,Overcast,140,2012-10-22 21:53:00
6:53 PM,64.0,53.1,67,29.99,10.0,SSE,6.9,-,N/A,,Overcast,150,2012-10-22 22:53:00
7:53 PM,63.0,52.0,67,30.00,10.0,South,5.8,-,N/A,,Overcast,170,2012-10-22 23:53:00
9:53 PM,62.1,52.0,70,29.99,10.0,SSW,3.5,-,0.00,Rain,Light Rain,200,2012-10-23 01:53:00
10:53 PM,57.9,55.0,90,29.97,9.0,Calm,Calm,-,0.02,,Overcast,0,2012-10-23 02:53:00
11:53 PM,57.9,55.0,90,29.99,8.0,Calm,Calm,-,N/A,,Overcast,0,2012-10-23 03:53:00